Date,TemperatureHighF,TemperatureAvgF,TemperatureLowF,DewpointHighF,DewpointAvgF,DewpointLowF,HumidityHigh,HumidityAvg,HumidityLow,PressureMaxIn,PressureMinIn,WindSpeedMaxMPH,WindSpeedAvgMPH,GustSpeedMaxMPH,PrecipitationSumIn
2013-9-1,89,78,72,75,73,70,98,86,59,29.79,29.71,6,3,14,0.00
2013-9-2,80,76,73,76,74,72,100,94,78,29.73,29.65,5,1,8,0.06
2013-9-3,83,75,67,74,67,59,100,79,47,29.83,29.66,5,1,11,0.00
2013-9-4,81,70,59,61,59,57,95,69,44,29.96,29.83,4,1,12,0.00
2013-9-5,79,69,60,63,58,49,90,70,43,30.04,29.90,4,1,13,0.00
2013-9-6,72,62,55,51,46,40,87,59,33,30.19,30.06,5,2,10,0.00
2013-9-7,78,63,48,58,48,-100,98,66,33,30.06,29.87,11,2,11,0.00
2013-9-8,82,72,64,67,61,47,96,71,50,29.99,29.79,3,1,13,0.00
2013-9-9,75,65,55,61,54,48,87,70,53,30.15,30.01,8,3,12,0.00
2013-9-10,86,75,65,75,70,62,94,84,70,30.12,30.01,10,4,16,0.00
2013-9-11,92,81,72,78,74,71,98,80,58,30.07,29.94,7,3,16,0.00
2013-9-12,87,77,70,77,73,70,98,87,68,29.94,29.66,6,2,15,0.22
2013-9-13,77,69,61,70,63,53,100,82,52,29.80,29.60,5,1,18,0.10
2013-9-14,66,58,51,52,47,-100,93,71,54,30.07,29.81,6,2,15,0.00
2013-9-15,72,58,45,55,49,44,98,76,44,30.16,30.03,5,1,12,0.00
2013-9-16,71,63,58,62,57,53,97,83,62,30.14,29.98,4,1,9,0.03
2013-9-17,65,57,48,51,43,38,91,62,39,30.35,30.16,7,2,18,0.00
2013-9-18,55,46,42,51,44,42,99,96,87,30.28,30.14,2,0,5,0.00
2013-9-19,76,60,46,56,52,45,99,77,43,30.14,30.01,5,1,11,0.00
2013-9-20,79,64,49,62,56,49,98,78,49,30.03,29.93,8,2,11,0.00
2013-9-21,80,65,52,68,56,-100,99,81,44,29.95,29.62,12,4,21,0.36
2013-9-22,71,64,56,67,55,46,100,76,43,29.85,29.61,5,1,16,0.65
2013-9-23,68,58,48,48,45,42,84,63,45,29.98,29.85,6,2,14,0.00
2013-9-24,72,58,45,53,47,43,92,70,44,29.99,29.84,3,1,17,0.00
2013-9-25,72,60,47,53,49,45,95,69,42,29.90,29.82,4,1,13,0.00
2013-9-26,71,60,51,59,55,51,98,85,59,30.01,29.86,6,2,12,0.00
2013-9-27,69,62,56,58,55,50,97,79,51,30.19,30.03,8,2,12,0.00
2013-9-28,71,61,54,56,51,-100,97,74,48,30.25,30.17,7,3,14,0.00
2013-9-29,71,61,51,58,53,51,98,80,49,30.15,30.01,9,3,16,0.00
2013-9-30,74,62,48,56,52,48,99,76,44,30.01,29.92,5,1,10,0.00